Regional Weather Roundup
Issued by NWS

Home | Current Version | Previous Version | Graphics & Text | Print | Product List | Glossary On
Versions: 1 2 3 4 5 6 7 8 9 10 11 12 13 14 15 16 17 18 19 20 21 22 23 24 25 26 27 28 29 30 31 32 33 34 35 36 37 38 39 40 41 42 43 44 45 46 47 48
000
ASUS45 KSLC 300010
RWRUT

UTAH REGIONAL WEATHER ROUNDUP
NATIONAL WEATHER SERVICE SALT LAKE CITY UT
600 PM MDT SAT AUG 29 2015

UTZ001>011-023>025-300100-

NORTHERN UTAH

CITY           SKY/WX    TMP DP  RH WIND       PRES   REMARKS
BRIGHAM CITY   CLOUDY    93  35  12 S7        29.92F
HILL AFB       CLOUDY    92  44  18 S12       29.96F
LOGAN          SUNNY     90  43  19 S8        29.94F
OGDEN          CLOUDY    94  39  14 S16       29.93F HX  90
PROVO AIRPORT  MOSUNNY   93  45  18 VRB3      29.96F
SALT LAKE CITY PTSUNNY   95  39  14 S15       29.90F HX  91
VERNAL         PTSUNNY   88  35  15 CALM      30.08F
WENDOVER       PTSUNNY   95  41  15 SW15      29.87F HX  91
HEBER CITY     PTSUNNY   90  36  14 W13       30.06F
WEST JORDAN    SUNNY     93  45  18 SE12      29.95F

$$

UTZ012>022-026-027-300100-

SOUTHERN/CENTRAL UTAH

CITY           SKY/WX    TMP DP  RH WIND       PRES   REMARKS
BLANDING       SUNNY     87  31  13 E6        30.23F
BRYCE CANYON   SUNNY     80  41  24 S10       30.30F
CEDAR CITY     MOSUNNY   89  41  18 S10       30.09F
DELTA          MOSUNNY   95  37  13 SW20G28   29.98F HX  91
HANKSVILLE     MOSUNNY   95  34  11 CALM      30.03F HX  90
MILFORD        SUNNY     93  42  17 S18G28    30.01F
MOAB/CYNLANDS  SUNNY     92  32  12 CALM      30.03F
PRICE          MOSUNNY   88  31  13 S13G21    30.13F
ST GEORGE      MOCLDY   100  48  17 S16       29.88S HX  97
KANAB          SUNNY     84  50  30 S7        30.12F

$$

REGIONAL REPORTS     COLORADO/ARIZONA

CITY           SKY/WX    TMP DP  RH WIND       PRES   REMARKS
CRAIG, CO      MOSUNNY   86  36  16 SW14      30.17F
GRAND JUNCTION SUNNY     90  35  14 VRB3      30.06F
RIFLE          SUNNY     89  35  14 W14       30.12F
MONTROSE       SUNNY     89  35  14 N7        30.16F
CORTEZ         SUNNY     83  40  21 S5        30.17F
PAGE, AZ       SUNNY     97  37  12 NE7       30.00F HX  92
GRAND CANYON   PTSUNNY   75  49  39 W9        30.27R
KINGMAN        PTSUNNY  100  47  16 SW14G22   29.95F HX  96
FLAGSTAFF      MOSUNNY   76  48  37 S13       30.30R

$$

REGIONAL REPORTS    NEVADA/IDAHO/WYOMING

CITY           SKY/WX    TMP DP  RH WIND       PRES   REMARKS
LAS VEGAS, NV  MOSUNNY  105  43  12 SW17G23   29.76F HX 100
ELY            MOSUNNY   87  37  17 S21G36    30.07F
ELKO           PTSUNNY   91  36  14 W17G23    29.91F
POCATELLO, ID  PTSUNNY   83  47  28 W13       29.92S THUNDER
BURLEY         CLOUDY    77  64  64 W3        29.88
EVANSTON, WY   CLOUDY    84  33  16 SW16      30.18F
ROCK SPRINGS   MOSUNNY   83  32  16 S10       30.16F
KEMMERER       CLOUDY   N/A N/A N/A SW15      30.20F

$$


USA.gov is the U.S. government's official web portal to all federal, state and local government web resources and services.